This demonstration page uses our WeatherBlox Daily Observations layout. Learn more.

Left ArrowRight Arrow

39.51506, -84.39828

Hourly Observations for December 31, 2018

Temp ( °F °C ) Dew Point ( °F °C ) Humidity (%) Winds ( mph kmh ) Pressure ( in mb ) Visibility ( mi km ) Precip ( " mm )
12:15 am 00:15 Clear 32 -0.2 30 -1.3 92 92 N N/A 30.15 1021 10 16 N/A
12:35 am 00:35 Clear 33 0.6 30 -0.9 90 90 N N/A 30.15 1021 10 16 N/A
12:55 am 00:55 Clear 33 0.5 31 -0.8 91 91 N N/A 30.12 1020 10 16 N/A
1:15 am 01:15 Clear 33 0.7 31 -0.7 90 90 N N/A 30.12 1020 10 16 N/A
1:35 am 01:35 Clear 33 0.7 31 -0.6 91 91 N N/A 30.12 1020 10 16 N/A
1:55 am 01:55 Clear 33 0.8 31 -0.3 92 92 N N/A 30.12 1020 10 16 N/A
2:15 am 02:15 Clear 34 1.1 31 -0.3 91 91 N N/A 30.12 1020 10 16 N/A
2:35 am 02:35 Clear 34 1.1 32 0.1 93 93 N N/A 30.09 1019 10 16 N/A
2:55 am 02:55 Mostly Cloudy 35 1.7 32 0.2 90 90 N 5 7 30.09 1019 10 16 N/A
3:15 am 03:15 Cloudy 36 2.1 32 0.1 87 87 NNE 3 6 30.09 1019 10 16 N/A
3:35 am 03:35 Cloudy 36 2.4 34 0.9 90 90 N N/A 30.09 1019 10 16 N/A
3:55 am 03:55 Cloudy with Light Rain 36 2.2 33 0.6 89 89 N 3 6 30.09 1019 10 16 N/A
4:15 am 04:15 Cloudy 36 2.3 33 0.7 89 89 N N/A 30.06 1018 10 16 N/A
4:35 am 04:35 Cloudy with Light Rain 37 2.6 34 1 89 89 N N/A 30.06 1018 10 16 N/A
4:55 am 04:55 Cloudy with Light Rain 37 2.6 34 1.2 91 91 N N/A 30.06 1018 10 16 N/A
5:15 am 05:15 Cloudy with Light Rain 37 2.8 35 1.6 92 92 N N/A 30.06 1018 7 11 N/A
5:35 am 05:35 Cloudy with Rain 37 2.7 35 1.8 94 94 N N/A 30.06 1018 5 8 0.02 0.51
5:55 am 05:55 Cloudy with Rain 37 2.9 36 2.1 95 95 N N/A 30.06 1018 5 8 0.04 1.02
6:15 am 06:15 Cloudy with Rain 38 3.2 36 2.4 95 95 NE 5 7 30.06 1018 5 8 0.02 0.51
6:35 am 06:35 Cloudy with Rain 38 3.2 37 2.6 96 96 NE 5 7 30.03 1017 4 6 0.07 1.78
6:55 am 06:55 Cloudy with Rain 38 3.6 38 3.1 97 97 NNE 3 6 29.97 1015 4 6 0.12 3.05
7:15 am 07:15 Cloudy with Rain 40 4.2 39 3.8 97 97 N N/A 29.97 1015 3 5 0.08 2.03
7:35 am 07:35 Cloudy with Rain 41 4.8 40 4.5 98 98 NE 5 7 29.94 1014 4 6 0.14 3.56
7:55 am 07:55 Cloudy with Rain 40 4.5 40 4.2 98 98 N 3 6 29.97 1015 5 8 0.17 4.32
8:15 am 08:15 Cloudy with Rain 41 4.8 40 4.5 98 98 N N/A 29.97 1015 3 5 0.03 0.76
8:35 am 08:35 Cloudy with Light Rain 41 4.9 40 4.6 98 98 N 6 9 29.97 1015 3 5 0.06 1.52
8:55 am 08:55 Cloudy with Light Rain 41 5.2 41 4.9 98 98 N 3 6 29.94 1014 3 5 0.08 2.03
9:15 am 09:15 Cloudy with Light Rain 42 5.5 42 5.3 99 99 NNW 3 6 29.94 1014 3 5 N/A
9:35 am 09:35 Cloudy with Light Rain 43 6 42 5.7 98 98 N N/A 29.91 1013 4 6 N/A
9:55 am 09:55 Cloudy with Light Rain 44 6.7 44 6.5 99 99 N N/A 29.91 1013 4 6 N/A
10:15 am 10:15 Cloudy with Light Rain 48 8.9 47 8.5 97 97 SSE 7 11 29.88 1012 4 6 N/A
10:35 am 10:35 Cloudy with Light Rain 49 9.4 48 8.9 97 97 SSE 12 19 29.88 1012 4 6 0.02 0.51
10:55 am 10:55 Cloudy with Rain 50 9.8 49 9.2 96 96 SSE 7 11 29.85 1011 5 8 0.06 1.52
11:15 am 11:15 Cloudy with Rain 50 10.1 49 9.5 96 96 SSE 8 13 29.85 1011 4 6 0.04 1.02
11:35 am 11:35 Cloudy with Rain 51 10.3 49 9.6 95 95 SSE 7 11 29.85 1011 5 8 0.09 2.29
11:55 am 11:55 Cloudy with Rain 51 10.3 49 9.6 95 95 SE 9 15 29.83 1010 2 3 0.14 3.56
12:15 pm 12:15 Cloudy with Light Rain 51 10.3 49 9.5 95 95 SE 7 11 29.80 1009 10 16 0.01 0.25
12:35 pm 12:35 Cloudy with Light Rain 50 10.2 49 9.6 96 96 SSE 13 20 29.77 1008 7 11 0.02 0.51
12:55 pm 12:55 Cloudy with Light Rain 51 10.3 50 9.9 97 97 SE 9 15 29.74 1007 3 5 0.04 1.02
1:15 pm 13:15 Cloudy with Light Rain 51 10.8 51 10.3 97 97 SSE 7 11 29.74 1007 4 6 0.06 1.52
1:35 pm 13:35 Cloudy with Light Rain 52 11.3 51 10.8 97 97 SSE 9 15 29.71 1006 7 11 0.08 2.03
1:55 pm 13:55 Cloudy with Rain 53 11.6 52 11.1 97 97 SSE 6 9 29.68 1005 3 5 0.11 2.79
2:15 pm 14:15 Cloudy with Light Rain 53 11.9 53 11.5 97 97 N N/A 29.68 1005 5 8 0.01 0.25
2:35 pm 14:35 Cloudy with Mist and Fog 57 13.8 56 13.4 97 97 SSW 9 15 29.65 1004 5 8 0.01 0.25
2:55 pm 14:55 Cloudy with Rain 58 14.5 57 13.9 96 96 S 9 15 29.65 1004 4 6 0.03 0.76
3:15 pm 15:15 Cloudy with Light Rain 59 15 58 14.3 96 96 SSW 13 20 29.65 1004 10 16 N/A
3:35 pm 15:35 Cloudy with Rain 60 15.3 58 14.6 96 96 S 13 20 29.65 1004 4 6 0.05 1.27
3:55 pm 15:55 Cloudy with Rain 60 15.4 58 14.7 96 96 SSW 9 15 29.62 1003 5 8 0.09 2.29
4:15 pm 16:15 Cloudy with Rain 60 15.6 59 15.1 97 97 S 8 13 29.62 1003 4 6 0.07 1.78
4:35 pm 16:35 Cloudy with Rain 60 15.8 59 15.2 96 96 S 9 15 29.59 1002 5 8 0.11 2.79
4:55 pm 16:55 Cloudy with Light Rain 61 16.1 60 15.3 95 95 S 14 22 29.59 1002 10 16 0.14 3.56
5:15 pm 17:15 Cloudy with Rain 62 16.7 60 15.6 93 93 SW 22 35 29.65 1004 4 6 0.03 0.76
5:35 pm 17:35 Cloudy with Rain 62 16.9 60 15.4 91 91 SSW 21 33 29.62 1003 7 11 0.08 2.03
5:55 pm 17:55 Cloudy with Rain 62 16.6 59 15.2 92 92 SSW 14 22 29.65 1004 7 11 0.09 2.29
6:15 pm 18:15 Cloudy 61 16.3 58 14.6 90 90 S 13 20 29.59 1002 10 16 0.02 0.51
6:35 pm 18:35 Cloudy 61 16.2 58 14.4 89 89 S 13 20 29.59 1002 10 16 0.02 0.51
7:15 pm 19:15 Partly Cloudy 61 15.9 58 14.3 90 90 S 14 22 29.62 1003 10 16 N/A
7:35 pm 19:35 Cloudy 61 16 57 13.9 87 87 SSW 17 28 29.62 1003 10 16 N/A
7:55 pm 19:55 Cloudy 60 15.5 56 13.3 87 87 SSW 18 30 29.65 1004 10 16 N/A
8:15 pm 20:15 Cloudy 60 15.7 55 12.9 84 84 SSW 20 31 29.65 1004 10 16 N/A
8:35 pm 20:35 Cloudy 60 15.5 55 12.7 84 84 SSW 22 35 29.65 1004 10 16 N/A
8:55 pm 20:55 Cloudy 60 15.4 55 12.5 83 83 SSW 22 35 29.65 1004 10 16 N/A
9:15 pm 21:15 Cloudy 59 15.2 54 12.2 82 82 SSW 17 28 29.68 1005 10 16 N/A
9:35 pm 21:35 Cloudy 59 15.1 53 11.7 80 80 SSW 24 39 29.68 1005 10 16 N/A
9:55 pm 21:55 Cloudy 59 14.8 49 9.7 72 72 WSW 26 43 29.71 1006 10 16 N/A
10:15 pm 22:15 Mostly Cloudy 58 14.4 47 8.1 66 66 WSW 30 48 29.74 1007 10 16 N/A
10:35 pm 22:35 Cloudy 57 14 47 8.1 68 68 WSW 21 33 29.74 1007 10 16 N/A
10:55 pm 22:55 Cloudy 56 13.5 47 8.5 72 72 WSW 20 31 29.74 1007 10 16 N/A
11:15 pm 23:15 Cloudy 54 12.4 46 7.8 74 74 WSW 24 39 29.80 1009 10 16 N/A
11:35 pm 23:35 Partly Cloudy 52 11.3 42 5.8 69 69 WSW 24 39 29.83 1010 10 16 N/A
11:55 pm 23:55 Mostly Cloudy 51 10.8 41 5 68 68 WSW 25 41 29.85 1011 10 16 N/A

Powered by AerisWeather